Waarnemingen

Advertentie
Mijn weer
Konstanz, Duitsland (10929): temperatuur & dauwpunt: 15.01.2017 11:00:00 - 21.01.2017 11:00:00 (CET)Konstanz, Duitsland (10929): temperatuur 5cm & temperatuur -5cm: 15.01.2017 11:00:00 - 21.01.2017 11:00:00 (CET)Konstanz, Duitsland (10929): temperatuur -20cm & temperatuur -100cm: 15.01.2017 11:00:00 - 21.01.2017 11:00:00 (CET)Konstanz, Duitsland (10929): windsnelheid & windstoten: 15.01.2017 11:00:00 - 21.01.2017 11:00:00 (CET)Konstanz, Duitsland (10929): windrichting: 15.01.2017 11:00:00 - 21.01.2017 11:00:00 (CET)Konstanz, Duitsland (10929): luchtdruk: 15.01.2017 11:00:00 - 21.01.2017 11:00:00 (CET)Konstanz, Duitsland (10929): zicht: 15.01.2017 11:00:00 - 21.01.2017 11:00:00 (CET)Konstanz, Duitsland (10929): Zonneschijnduur: 15.01.2017 11:00:00 - 21.01.2017 11:00:00 (CET)Konstanz, Duitsland (10929): neerslag: 15.01.2017 11:00:00 - 21.01.2017 11:00:00 (CET)
Datum & Tijd tt [°C] td [°C] tt 5cm [°C] tt -5cm [°C] tt -20cm [°C] tt -100cm [°C] ff [km/u] ff [kn] fx [km/u] fx [kn] dd ppp [hPa] vv [km] sd [min] rr [mm]
21.01.2017 11:00:00 -4,7 -5,1 -4,3 0,0 1,1 4,5 6 3 10 5 ONO 1033,0 0,3 0 0,0
21.01.2017 10:00:00 -5,4 -6,1 -5,1 0,0 1,1 4,5 3 1 6 4 NNW 1033,2 1,3 0 0,0
21.01.2017 09:00:00 -5,6 -6,0 -5,4 0,0 1,1 4,5 4 2 7 4 NW 1033,0 1,3 0 0,0
21.01.2017 08:00:00 -5,8 -6,1 -5,6 0,0 1,1 4,5 5 3 10 5 WNW 1032,8 1,1 0 0,0
21.01.2017 07:00:00 -5,9 -6,3 -5,7 0,0 1,1 4,5 3 2 8 5 NNO 1032,9 1,2 0 0,0
21.01.2017 06:00:00 -6,1 -6,4 -5,9 0,0 1,1 4,5 3 2 10 5 W 1032,9 1,2 0 0,0
21.01.2017 05:00:00 -6,3 -6,8 -6,1 0,0 1,1 4,5 5 3 9 5 NNO 1032,9 2,5 0 0,0
21.01.2017 04:00:00 -6,0 -6,8 -5,9 0,0 1,1 4,5 4 2 6 4 N 1033,2 2,9 0 0,0
21.01.2017 03:00:00 -6,3 -7,2 -6,2 0,0 1,1 4,5 5 3 11 6 NNO 1033,5 3,2 0 0,0
21.01.2017 02:00:00 -6,4 -7,4 -6,3 0,0 1,2 4,5 5 3 11 6 NNO 1033,6 3,9 0 0,0
21.01.2017 01:00:00 -6,4 -7,4 -6,4 0,0 1,2 4,5 5 3 12 6 NNO 1034,0 3,7 0 0,0
21.01.2017 00:00:00 -6,5 -7,6 -6,4 0,0 1,2 4,5 7 4 20 11 NNO 1034,4 4,0 0 0,0
20.01.2017 23:00:00 -6,3 -7,6 -6,2 0,0 1,2 4,5 8 5 15 8 NNO 1034,4 4,0 0 0,0
20.01.2017 22:00:00 -5,9 -7,1 -5,8 0,0 1,2 4,5 7 4 15 8 NO 1034,1 4,2 0 0,0
20.01.2017 21:00:00 -5,7 -7,1 -5,6 0,0 1,2 4,5 6 3 12 7 N 1034,1 4,5 0 0,0
20.01.2017 20:00:00 -5,6 -7,0 -5,6 0,1 1,2 4,5 5 3 14 7 NNO 1034,1 4,9 0 0,0
20.01.2017 19:00:00 -5,5 -7,0 -5,4 0,1 1,2 4,5 6 3 10 5 NNO 1033,9 4,8 0 0,0
20.01.2017 18:00:00 -5,4 -7,3 -5,4 0,1 1,2 4,5 5 3 9 5 NO 1033,8 6 0 0,0
20.01.2017 17:00:00 -5,3 -7,3 -5,3 0,1 1,2 4,5 6 3 10 5 NNO 1033,8 5 0 0,0
20.01.2017 16:00:00 -5,2 -7,5 -5,0 0,1 1,2 4,5 4 2 10 6 N 1033,8 5 0 0,0
20.01.2017 15:00:00 -5,2 -7,5 -5,1 0,1 1,2 4,5 4 2 12 7 N 1033,8 6 0 0,0
20.01.2017 14:00:00 -5,3 -7,8 -5,1 0,1 1,2 4,5 5 3 12 7 NNO 1033,9 6 0 0,0
20.01.2017 13:00:00 -5,5 -7,9 -5,1 0,1 1,2 4,5 7 4 13 7 NNO 1034,6 7 0 0,0
20.01.2017 12:00:00 -5,6 -7,9 -5,3 0,1 1,2 4,5 7 4 11 6 NNO 1035,1 7 0 0,0
20.01.2017 11:00:00 -6,0 -8,1 -5,7 0,0 1,2 4,5 2 1 8 4 NO 1035,2 6 0 0,0
20.01.2017 10:00:00 -6,4 -8,3 -6,2 0,0 1,2 4,5 3 1 11 6 WNW 1035,2 6 0 0,0
20.01.2017 09:00:00 -6,7 -8,5 -6,6 0,0 1,2 4,5 6 3 14 8 NNO 1034,9 6 0 0,0
20.01.2017 08:00:00 -6,9 -8,5 -6,9 0,0 1,2 4,5 8 4 15 8 NNO 1034,8 6 0 0,0
20.01.2017 07:00:00 -7,2 -8,9 -7,2 0,0 1,2 4,5 8 4 15 8 NNO 1034,6 6 0 0,0
20.01.2017 06:00:00 -6,6 -8,5 -6,6 0,1 1,2 4,5 4 2 13 7 NNO 1034,4 7 0 0,0
20.01.2017 05:00:00 -6,7 -9,0 -6,8 0,1 1,2 4,5 8 5 17 9 NNO 1034,3 7 0 0,0
20.01.2017 04:00:00 -6,3 -8,6 -6,4 0,1 1,2 4,5 9 5 18 10 NNO 1034,3 7 0 0,0
20.01.2017 03:00:00 -6,4 -8,8 -6,4 0,1 1,2 4,5 10 5 17 9 NNO 1034,4 7 0 0,0
20.01.2017 02:00:00 -6,3 -8,7 -6,3 0,1 1,2 4,5 10 5 14 8 NNO 1034,2 7 0 0,0
20.01.2017 01:00:00 -6,0 -8,3 -6,3 0,1 1,2 4,5 7 4 16 9 NO 1034,4 7 0 0,0
20.01.2017 00:00:00 -5,5 -8,1 -6,0 0,2 1,3 4,6 6 4 17 9 NNO 1034,5 7 0 0,0
19.01.2017 23:00:00 -5,4 -8,2 -5,9 0,2 1,3 4,6 9 5 16 9 NO 1034,7 8 0 0,0
19.01.2017 22:00:00 -4,9 -7,8 -5,5 0,2 1,3 4,6 8 4 20 11 ONO 1034,8 10 0 0,0
19.01.2017 21:00:00 -4,8 -7,5 -5,0 0,2 1,3 4,6 10 5 22 12 ONO 1034,7 10 0 0,0
19.01.2017 20:00:00 -4,9 -7,6 -5,0 0,2 1,3 4,6 10 5 22 12 NO 1034,7 10 0 0,0
19.01.2017 19:00:00 -4,9 -7,8 -5,0 0,2 1,3 4,6 11 6 22 12 NO 1034,9 10 0 0,0
19.01.2017 18:00:00 -4,7 -7,4 -4,9 0,2 1,3 4,6 11 6 25 13 NO 1034,4 9 0 0,0
19.01.2017 17:00:00 -4,5 -7,5 -4,6 0,2 1,3 4,6 11 6 18 10 NO 1034,0 9 0 0,0
19.01.2017 16:00:00 -4,4 -7,6 -4,4 0,2 1,3 4,6 10 5 19 11 NO 1034,1 8 0 0,0
19.01.2017 15:00:00 -4,3 -7,7 -4,2 0,2 1,3 4,6 9 5 20 11 NO 1034,1 9 0 0,0
19.01.2017 14:00:00 -4,3 -7,9 -4,2 0,2 1,3 4,6 9 5 22 12 NO 1034,0 8 0 0,0
19.01.2017 13:00:00 -4,2 -7,6 -4,0 0,2 1,3 4,6 11 6 20 11 O 1034,2 9 0 0,0
19.01.2017 12:00:00 -4,4 -7,6 -4,2 0,2 1,3 4,6 11 6 21 12 NO 1034,4 9 0 0,0
19.01.2017 11:00:00 -4,4 -7,7 -4,3 0,2 1,3 4,6 11 6 22 12 ONO 1034,8 9 0 0,0
19.01.2017 10:00:00 -4,8 -7,7 -4,7 0,2 1,3 4,6 11 6 28 15 ONO 1034,8 9 0 0,0
19.01.2017 09:00:00 -5,0 -7,8 -5,0 0,2 1,3 4,6 13 7 28 15 ONO 1034,4 10 0 0,0
19.01.2017 08:00:00 -4,8 -7,6 -4,9 0,2 1,3 4,6 11 6 24 13 O 1034,0 10 0 0,0
19.01.2017 07:00:00 -4,7 -7,8 -4,8 0,2 1,3 4,6 14 7 32 17 O 1033,8 10 0 0,0
19.01.2017 06:00:00 -4,6 -7,3 -4,7 0,2 1,3 4,6 9 5 29 16 ONO 1033,5 10 0 0,0
19.01.2017 05:00:00 -4,5 -7,7 -4,7 0,2 1,3 4,6 14 8 31 17 ONO 1033,7 14 0 0,0
19.01.2017 04:00:00 -4,4 -7,7 -4,6 0,2 1,3 4,6 15 8 31 17 ONO 1033,7 15 0 0,0
19.01.2017 03:00:00 -4,3 -7,7 -4,5 0,2 1,3 4,6 13 7 35 19 ONO 1033,6 15 0 0,0
19.01.2017 02:00:00 -4,2 -7,8 -4,4 0,2 1,3 4,6 17 9 36 20 ONO 1033,3 16 0 0,0
19.01.2017 01:00:00 -4,1 -7,7 -4,3 0,2 1,3 4,6 14 7 34 19 ONO 1033,2 16 0 0,0
19.01.2017 00:00:00 -4,1 -7,9 -4,2 0,3 1,3 4,6 20 11 39 21 ONO 1033,4 18 0 0,0
18.01.2017 23:00:00 -4,0 -7,8 -4,2 0,3 1,3 4,6 15 8 37 20 ONO 1033,5 16 0 0,0
18.01.2017 22:00:00 -3,9 -8,0 -4,0 0,3 1,3 4,6 16 9 42 23 ONO 1033,4 17 0 0,0
18.01.2017 21:00:00 -3,8 -8,1 -3,9 0,3 1,3 4,6 24 13 38 20 ONO 1033,5 19 0 0,0
18.01.2017 20:00:00 -3,7 -8,1 -3,9 0,3 1,3 4,6 22 12 55 30 O 1033,6 20 0 0,0
18.01.2017 19:00:00 -3,4 -8,0 -3,6 0,3 1,3 4,6 28 15 48 26 ONO 1033,4 21 0 0,0
18.01.2017 18:00:00 -3,3 -8,1 -3,5 0,3 1,3 4,6 29 16 46 25 ONO 1033,4 21 0 0,0
18.01.2017 17:00:00 -3,1 -7,8 -3,4 0,3 1,3 4,6 22 12 46 25 ONO 1033,2 25 0 0,0
18.01.2017 16:00:00 -2,9 -7,9 -3,1 0,3 1,3 4,7 25 14 47 26 ONO 1033,0 28 0 0,0
18.01.2017 15:00:00 -2,8 -7,8 -2,9 0,3 1,3 4,7 23 12 42 23 ONO 1032,8 25 0 0,0
18.01.2017 14:00:00 -3,3 -8,3 -3,2 0,3 1,3 4,7 27 15 53 28 ONO 1032,9 30 0 0,0
18.01.2017 13:00:00 -3,5 -8,4 -3,2 0,3 1,3 4,7 20 11 44 24 ONO 1033,3 30 0 0,0
18.01.2017 12:00:00 -3,9 -8,5 -3,8 0,3 1,3 4,7 19 11 43 23 ONO 1033,7 30 0 0,0
18.01.2017 11:00:00 -4,2 -8,3 -4,2 0,3 1,3 4,7 21 12 39 21 ONO 1033,9 22 0 0,0
18.01.2017 10:00:00 -4,5 -8,5 -4,5 0,3 1,3 4,7 22 12 50 27 ONO 1033,6 21 0 0,0
18.01.2017 09:00:00 -4,6 -8,3 -4,7 0,3 1,3 4,7 20 11 44 24 ONO 1033,2 24 0 0,0
18.01.2017 08:00:00 -4,6 -8,3 -4,8 0,3 1,3 4,7 22 12 44 24 ONO 1032,5 22 0 0,0
18.01.2017 07:00:00 -4,7 -8,5 -4,9 0,3 1,3 4,7 22 12 45 24 ONO 1032,3 25 0 0,0
18.01.2017 06:00:00 -4,9 -8,4 -5,1 0,3 1,3 4,7 21 12 48 26 ONO 1032,1 25 0 0,0
18.01.2017 05:00:00 -5,0 -8,5 -5,1 0,3 1,3 4,7 24 13 47 25 ONO 1032,1 27 0 0,0
18.01.2017 04:00:00 -4,9 -8,5 -5,0 0,3 1,3 4,7 24 13 49 26 ONO 1032,1 27 0 0,0
18.01.2017 03:00:00 -4,7 -8,3 -4,9 0,4 1,3 4,7 24 13 54 29 ONO 1032,4 30 0 0,0
18.01.2017 02:00:00 -4,7 -8,6 -4,9 0,4 1,3 4,7 22 12 45 25 ONO 1032,4 30 0 0,0
18.01.2017 01:00:00 -4,5 -8,5 -4,7 0,4 1,3 4,7 22 12 46 25 ONO 1032,4 32 0 0,0
18.01.2017 00:00:00 -4,2 -7,9 -4,5 0,4 1,3 4,7 18 10 49 27 ONO 1032,3 31 0 0,0
17.01.2017 23:00:00 -4,2 -8,2 -4,5 0,4 1,3 4,7 21 11 49 27 ONO 1032,3 31 0 0,0
17.01.2017 22:00:00 -4,0 -8,0 -4,4 0,4 1,4 4,7 26 14 49 27 ONO 1032,0 30 0 0,0
17.01.2017 21:00:00 -4,1 -8,1 -5,0 0,4 1,4 4,7 25 14 53 28 ONO 1031,9 31 0 0,0
17.01.2017 20:00:00 -4,1 -8,3 -5,0 0,4 1,4 4,7 28 15 61 33 ONO 1031,6 32 0 0,0
17.01.2017 19:00:00 -4,0 -8,3 -5,3 0,4 1,4 4,7 24 13 57 31 NO 1031,3 28 0 0,0
17.01.2017 18:00:00 -4,3 -8,2 -5,3 0,4 1,4 4,7 24 13 52 28 NO 1031,0 23 0 0,0
17.01.2017 17:00:00 -4,1 -7,9 -5,3 0,4 1,4 4,7 27 15 50 27 ONO 1030,8 25 1 0,0
17.01.2017 16:00:00 -3,8 -7,8 -5,0 0,5 1,4 4,7 24 13 49 26 ONO 1030,5 35 24 0,0
17.01.2017 15:00:00 -3,5 -7,9 -4,4 0,5 1,4 4,7 27 15 49 27 ONO 1030,4 40 54 0,0
17.01.2017 14:00:00 -2,9 -8,1 -3,1 0,5 1,4 4,7 20 11 49 26 NO 1030,2 30 60 0,0
17.01.2017 13:00:00 -3,1 -8,0 -2,9 0,5 1,4 4,7 18 10 41 22 NO 1030,7 30 60 0,0
17.01.2017 12:00:00 -3,6 -8,4 -3,9 0,5 1,4 4,7 19 10 39 21 NO 1031,1 28 60 0,0
17.01.2017 11:00:00 -4,5 -8,7 -4,8 0,5 1,4 4,7 22 12 49 26 NO 1031,6 25 59 0,0
17.01.2017 10:00:00 -5,0 -8,3 -6,4 0,4 1,4 4,8 21 12 41 22 NO 1031,2 23 60 0,0
17.01.2017 09:00:00 -5,3 -7,9 -6,3 0,4 1,4 4,8 17 9 37 20 NO 1031,0 20 21 0,0
17.01.2017 08:00:00 -4,6 -7,3 -5,3 0,5 1,4 4,8 20 11 40 22 NO 1030,5 17 0 0,0
17.01.2017 07:00:00 -4,2 -6,9 -4,6 0,5 1,4 4,8 19 10 38 20 NO 1029,7 28 0 0,0
17.01.2017 06:00:00 -4,1 -6,7 -5,1 0,5 1,4 4,8 24 13 45 24 NO 1028,9 18 0 0,0
17.01.2017 05:00:00 -3,5 -6,0 -4,1 0,5 1,4 4,8 21 12 40 22 NO 1028,3 23 0 0,0
17.01.2017 04:00:00 -3,7 -6,1 -4,6 0,5 1,4 4,8 15 8 35 19 NO 1028,1 23 0 0,0
17.01.2017 03:00:00 -4,0 -6,4 -5,2 0,5 1,4 4,8 16 8 32 17 NO 1028,0 27 0 0,0
17.01.2017 02:00:00 -4,2 -6,4 -5,3 0,5 1,4 4,8 19 10 35 19 NO 1027,6 21 0 0,0
17.01.2017 01:00:00 -3,9 -6,2 -4,5 0,5 1,4 4,8 15 8 29 16 NO 1027,9 24 0 0,0
17.01.2017 00:00:00 -4,1 -6,6 -4,6 0,5 1,4 4,8 14 8 30 16 NO 1027,7 31 0 0,0
16.01.2017 23:00:00 -3,8 -6,5 -3,7 0,5 1,4 4,8 6 4 18 10 NNO 1027,6 34 0 0,0
16.01.2017 22:00:00 -3,8 -7,1 -3,9 0,5 1,4 4,8 4 2 16 9 NNO 1027,5 54 0 0,0
16.01.2017 21:00:00 -3,8 -7,3 -4,1 0,5 1,4 4,8 7 4 18 10 NNO 1027,1 65 0 0,0
16.01.2017 20:00:00 -3,8 -7,1 -4,0 0,5 1,4 4,8 6 3 19 11 NO 1026,8 50 0 0,0
16.01.2017 19:00:00 -4,1 -7,3 -3,9 0,5 1,4 4,8 9 5 24 13 NO 1026,3 48 0 0,0
16.01.2017 18:00:00 -3,2 -6,2 -2,1 0,5 1,4 4,8 9 5 27 15 NO 1025,6 44 0 0,0
16.01.2017 17:00:00 -2,5 -5,1 -0,8 0,5 1,4 4,8 10 6 19 10 NO 1025,0 25 0 0,1
16.01.2017 16:00:00 -2,5 -3,5 -0,1 0,5 1,4 4,8 8 4 14 8 NO 1024,6 1,0 0 0,4
16.01.2017 15:00:00 -1,3 -4,5 0,0 0,5 1,4 4,8 6 3 16 9 NO 1023,9 45 1 0,2
16.01.2017 14:00:00 -2,1 -3,6 0,0 0,6 1,4 4,8 8 4 14 8 NNO 1023,9 0,6 2 0,1
16.01.2017 13:00:00 -1,3 -4,6 0,1 0,6 1,4 4,8 6 3 10 5 NNO 1023,8 25 12 0,0
16.01.2017 12:00:00 -1,6 -5,0 0,1 0,6 1,4 4,8 5 3 11 6 NNO 1024,1 25 1 0,0
16.01.2017 11:00:00 -2,6 -4,5 -0,5 0,5 1,4 4,8 5 3 13 7 ONO 1024,5 7 0 0,0
16.01.2017 10:00:00 -2,7 -4,4 -2,4 0,5 1,4 4,8 6 4 11 6 N 1024,1 15 0 0,3
16.01.2017 09:00:00 -3,4 -4,0 -3,2 0,5 1,5 4,8 4 2 10 5 WNW 1024,0 2,0 0 0,2
16.01.2017 08:00:00 -3,7 -4,3 -4,1 0,5 1,5 4,8 6 4 11 6 WNW 1023,8 6 0 0,0
16.01.2017 07:00:00 -3,5 -4,0 -3,7 0,5 1,5 4,8 6 3 11 6 WNW 1023,3 2,5 0 0,5
16.01.2017 06:00:00 -3,5 -4,0 -3,6 0,5 1,5 4,9 7 4 10 6 WNW 1023,2 2,5 0 0,1
16.01.2017 05:00:00 -3,4 -3,8 -4,1 0,5 1,5 4,9 7 4 10 6 W 1023,1 9 0 0,0
16.01.2017 04:00:00 -3,6 -4,0 -4,6 0,5 1,5 4,9 8 4 11 6 W 1023,3 10 0 0,0
16.01.2017 03:00:00 -3,6 -4,1 -5,8 0,5 1,5 4,9 5 3 8 4 W 1023,5 14 0 0,0
16.01.2017 02:00:00 -3,6 -4,1 -7,0 0,5 1,5 4,9 6 3 8 4 WZW 1023,7 16 0 0,0
16.01.2017 01:00:00 -4,1 -4,2 -12,3 0,5 1,5 4,9 4 2 9 5 WNW 1024,0 10 0 0,0
16.01.2017 00:00:00 -3,0 -3,5 -7,6 0,5 1,5 4,9 5 3 7 4 WZW 1023,9 15 0 0,0
15.01.2017 23:00:00 -2,6 -3,0 -4,2 0,5 1,5 4,9 5 3 9 5 W 1024,1 14 0 0,0
15.01.2017 22:00:00 -3,1 -3,6 -9,8 0,5 1,5 4,9 6 3 13 7 W 1024,2 13 0 0,0
15.01.2017 21:00:00 -2,4 -3,2 -5,7 0,5 1,5 4,9 7 4 14 7 W 1024,0 19 0 0,0
15.01.2017 20:00:00 -2,1 -3,0 -5,9 0,5 1,5 4,9 7 4 11 6 WZW 1024,0 40 0 0,0
15.01.2017 19:00:00 -2,5 -2,8 -5,9 0,5 1,5 4,9 6 3 27 15 W 1024,2 24 0 1,1
15.01.2017 18:00:00 -1,7 -2,0 -1,6 0,6 1,5 4,9 14 8 29 16 WNW 1023,7 0,2 0 0,9
15.01.2017 17:00:00 -1,0 -2,7 -1,4 0,6 1,5 4,9 9 5 22 12 W 1023,4 20 0 0,0
15.01.2017 16:00:00 -1,0 -3,2 -2,6 0,6 1,5 4,9 10 6 24 13 WZW 1023,1 16 5 0,0
15.01.2017 15:00:00 -0,2 -3,1 -1,0 0,6 1,5 4,9 11 6 21 12 WZW 1023,0 8 0 0,3
15.01.2017 14:00:00 -0,7 -2,7 -0,7 0,6 1,5 4,9 11 6 30 16 W 1023,2 4,0 0 0,1
15.01.2017 13:00:00 -0,4 -3,7 -0,2 0,6 1,5 4,9 16 9 29 16 WZW 1023,0 12 1 0,0
15.01.2017 12:00:00 -0,7 -3,8 -0,7 0,6 1,5 4,9 16 8 30 16 WZW 1023,2 20 18 0,0
15.01.2017 11:00:00 -1,3 -3,9 -1,8 0,6 1,5 4,9 13 7 32 17 W 1023,4 8 0 0,0

tt = temperatuur
td = dauwpunt
tt 5cm = temperatuur 5cm
tt -5cm = temperatuur -5cm
tt -20cm = temperatuur -20cm
tt -100cm = temperatuur -100cm
ff = windsnelheid
fx = windstoten
dd = windrichting
ppp = luchtdruk
vv = zicht
sd = Zonneschijnduur
rr = neerslag

Weerstations in de omgeving